Weather History for Park Rapids, MN

Change the Weather History Date:

Friday, November 21, 2014

  Actual Average Record
Temperature  
Mean Temperature 16 °F -  
Max Temperature 28 °F 32 °F 58 °F (1990)
Min Temperature 5 °F 15 °F -13 °F (1978)
Degree Days  
Heating Degree Days 48    
Moisture  
Dew Point 13 °F    
Average Humidity 81    
Maximum Humidity 92    
Minimum Humidity 69    
Precipitation  
Precipitation 0.00 in - - ()
Sea Level Pressure  
Sea Level Pressure 29.95 in    
Wind  
Wind Speed 11 mph (South)    
Max Wind Speed 21 mph    
Max Gust Speed 29 mph    
Visibility 10 miles    
Events      
Averages and records for this station are not official NWS values.
T = Trace of Precipitation, MM = Missing Value Source: NWS Daily Summary

Daily Weather History Graph

Daily Weather History Graph

Search for Another Location

Airport:

Trip Planner

Search our weather history database for the weather conditions in past years. The results will help you decide how hot, cold, wet, or windy it might be!

Date:

Astronomy

Nov. 21, 2014 Rise Set
Actual Time 7:31 AM CST 4:40 PM CST
Civil Twilight 6:58 AM CST 5:13 PM CST
Nautical Twilight 6:20 AM CST 5:51 PM CST
Astronomical Twilight 5:44 AM CST 6:27 PM CST
Moon 6:23 AM CST (11/21) 4:29 PM CST (11/21)
Length of Visible Light 10h 15m
Length of Day
9h 08m
Waning Crescent, 1% of the Moon is Illuminated
Nov 21
Waning Crescent
Nov 22
New
Nov 29
First Quarter
Dec 6
Full
Dec 14
Last Quarter

Hourly Weather History & Observations

Time (CST) Temp. Windchill Dew Point Humidity Pressure Visibility Wind Dir Wind Speed Gust Speed Precip Events Conditions
12:53 AM 6.1 °F -5.6 °F 1.9 °F 83% 30.20 in 10.0 mi SSE 6.9 mph - N/A   Scattered Clouds
1:53 AM 6.1 °F -6.8 °F 1.0 °F 80% 30.18 in 10.0 mi SSE 8.1 mph - N/A   Clear
2:53 AM 6.8 °F -8.6 °F 1.4 °F 79% 30.06 in 10.0 mi SSE 11.5 mph - N/A   Clear
3:53 AM 5.0 °F -10.0 °F 1.0 °F 84% 30.14 in 10.0 mi South 10.4 mph - N/A   Clear
4:53 AM 5.0 °F -10.0 °F 1.0 °F 84% 30.13 in 10.0 mi South 10.4 mph - N/A   Clear
5:53 AM 6.1 °F -10.2 °F 1.9 °F 83% 30.10 in 9.0 mi SSE 12.7 mph - N/A   Clear
6:53 AM 7.0 °F -8.3 °F 3.0 °F 84% 30.07 in 10.0 mi SSE 11.5 mph - N/A   Clear
7:53 AM 7.0 °F -6.6 °F 3.0 °F 84% 30.06 in 10.0 mi SE 9.2 mph - N/A   Clear
8:53 AM 12.0 °F -2.0 °F 8.1 °F 84% 30.04 in 8.0 mi South 11.5 mph - N/A   Clear
9:53 AM 18.0 °F 4.8 °F 12.0 °F 78% 30.01 in 10.0 mi South 12.7 mph - N/A   Clear
10:53 AM 23.0 °F 9.2 °F 15.1 °F 72% 29.99 in 10.0 mi South 17.3 mph 26.5 mph N/A   Clear
11:53 AM 26.1 °F 12.0 °F 18.0 °F 71% 29.94 in 10.0 mi SSW 20.7 mph 27.6 mph N/A   Clear
12:53 PM 28.0 °F 15.7 °F 19.0 °F 69% 29.92 in 10.0 mi SSW 17.3 mph 28.8 mph N/A   Clear
1:53 PM 27.0 °F 13.9 °F 19.0 °F 72% 29.89 in 10.0 mi SSW 18.4 mph 26.5 mph N/A   Clear
2:53 PM 28.0 °F 17.5 °F 19.9 °F 72% 29.89 in 10.0 mi SSW 12.7 mph 23.0 mph N/A   Clear
3:53 PM 27.0 °F 14.7 °F 21.0 °F 78% 29.87 in 10.0 mi South 16.1 mph - N/A   Clear
4:53 PM 27.0 °F 15.2 °F 21.0 °F 78% 29.86 in 10.0 mi South 15.0 mph - N/A   Clear
5:53 PM 27.0 °F 15.6 °F 21.9 °F 81% 29.84 in 10.0 mi South 13.8 mph - N/A   Clear
6:53 PM 27.0 °F 17.3 °F 23.0 °F 85% 29.83 in 10.0 mi South 10.4 mph - N/A   Clear
7:53 PM 27.0 °F 17.3 °F 23.0 °F 85% 29.81 in 10.0 mi South 10.4 mph - N/A   Clear
8:53 PM 27.0 °F 19.5 °F 23.0 °F 85% 29.78 in 10.0 mi SSW 6.9 mph - N/A   Clear
9:53 PM 24.1 °F 14.4 °F 21.0 °F 88% 29.77 in 10.0 mi South 9.2 mph - N/A   Clear
10:53 PM 24.1 °F 15.2 °F 21.9 °F 91% 29.76 in 10.0 mi South 8.1 mph - N/A   Clear
11:53 PM 21.9 °F 14.5 °F 19.9 °F 92% 29.75 in 10.0 mi SSW 5.8 mph - N/A   Clear